Weather History for KFDY - November, 2013

Change the Weather History Date:

Sunday, November 24, 2013

  Actual Average Record
Temperature  
Mean Temperature 20 °F -  
Max Temperature 25 °F 42 °F 66 °F (2001)
Min Temperature 14 °F 29 °F 1 °F (1950)
Degree Days  
Heating Degree Days 46    
Moisture  
Dew Point 11 °F    
Average Humidity 68    
Maximum Humidity 84    
Minimum Humidity 50    
Precipitation  
Precipitation 0.00 in - - ()
Sea Level Pressure  
Sea Level Pressure 30.57 in    
Wind  
Wind Speed 10 mph (West)    
Max Wind Speed 17 mph    
Max Gust Speed 22 mph    
Visibility 10 miles    
Events      
Averages and records for this station are not official NWS values.
T = Trace of Precipitation, MM = Missing Value Source: NWS Daily Summary

Daily Weather History Graph

Daily Weather History Graph

Search for Another Location

Airport or City:

Trip Planner

Search our weather history database for the weather conditions in past years. The results will help you decide how hot, cold, wet, or windy it might be!

Date:

Astronomy

Nov. 24, 2013 Rise Set
Actual Time 7:32 AM EST 5:09 PM EST
Civil Twilight 7:02 AM EST 5:39 PM EST
Nautical Twilight 6:28 AM EST 6:13 PM EST
Astronomical Twilight 5:56 AM EST 6:46 PM EST
Moon 11:36 PM EST (11/24) 12:18 PM EST (11/24)
Length of Visible Light 10h 37m
Length of Day
9h 36m
Waning Gibbous, 61% of the Moon is Illuminated
Nov 24
Waning Gibbous
Nov 25
Last Quarter
Dec 2
New
Dec 9
First Quarter
Dec 17
Full

Hourly Weather History & Observations

Time (EST) Temp. Windchill Dew Point Humidity Pressure Visibility Wind Dir Wind Speed Gust Speed Precip Events Conditions
12:53 AM 17.1 °F 5.0 °F 9.0 °F 71% 30.54 in 10.0 mi NW 10.4 mph - N/A   Clear
1:53 AM 17.1 °F 5.8 °F 9.0 °F 71% 30.56 in 10.0 mi NW 9.2 mph - N/A   Clear
2:53 AM 16.0 °F 3.6 °F 8.1 °F 71% 30.56 in 10.0 mi NW 10.4 mph - N/A   Clear
3:53 AM 16.0 °F 4.4 °F 8.1 °F 71% 30.56 in 10.0 mi NW 9.2 mph - N/A   Clear
4:53 AM 15.1 °F 3.3 °F 8.1 °F 74% 30.57 in 10.0 mi WNW 9.2 mph - N/A   Clear
5:53 AM 15.1 °F 2.5 °F 8.1 °F 74% 30.58 in 10.0 mi WNW 10.4 mph - N/A   Clear
6:53 AM 14.0 °F 3.9 °F 8.1 °F 77% 30.59 in 10.0 mi West 6.9 mph - N/A   Clear
7:53 AM 15.1 °F 4.2 °F 8.1 °F 74% 30.61 in 10.0 mi West 8.1 mph - N/A   Partly Cloudy
8:53 AM 18.0 °F 7.7 °F 8.1 °F 65% 30.63 in 10.0 mi WNW 8.1 mph - N/A   Clear
9:53 AM 21.0 °F 10.6 °F 6.1 °F 53% 30.64 in 10.0 mi WNW 9.2 mph - N/A   Clear
10:53 AM 23.0 °F 9.2 °F 7.0 °F 50% 30.63 in 10.0 mi WNW 17.3 mph 20.7 mph N/A   Clear
11:53 AM 21.9 °F 8.7 °F 7.0 °F 53% 30.62 in 10.0 mi WNW 15.0 mph 21.9 mph N/A   Mostly Cloudy
12:53 PM 23.0 °F 12.4 °F 9.0 °F 55% 30.61 in 10.0 mi WNW 10.4 mph - N/A   Mostly Cloudy
1:53 PM 24.1 °F 13.1 °F 10.0 °F 55% 30.59 in 10.0 mi WNW 11.5 mph - N/A   Overcast
2:53 PM 24.1 °F 13.7 °F 12.0 °F 60% 30.57 in 10.0 mi WNW 10.4 mph - N/A   Overcast
3:53 PM 25.0 °F 14.8 °F 14.0 °F 63% 30.57 in 10.0 mi West 10.4 mph - N/A   Overcast
4:26 PM 24.8 °F 15.3 °F 12.2 °F 59% 30.54 in 9.0 mi WNW 9.2 mph - 0.00 in   Overcast
4:49 PM 24.8 °F 12.9 °F 12.2 °F 59% 30.54 in 10.0 mi West 13.8 mph - 0.00 in   Overcast
4:53 PM 24.1 °F 14.4 °F 12.9 °F 62% 30.57 in 10.0 mi West 9.2 mph - 0.00 in   Overcast
5:53 PM 23.0 °F 13.9 °F 14.0 °F 68% 30.56 in 10.0 mi West 8.1 mph - 0.00 in   Overcast
6:53 PM 21.0 °F - 15.1 °F 78% 30.56 in 10.0 mi Calm Calm - N/A   Clear
7:53 PM 18.0 °F 11.1 °F 14.0 °F 84% 30.54 in 10.0 mi SSW 4.6 mph - N/A   Clear
8:53 PM 19.9 °F 12.1 °F 14.0 °F 78% 30.53 in 10.0 mi SW 5.8 mph - N/A   Clear
9:53 PM 19.0 °F 10.0 °F 14.0 °F 81% 30.52 in 10.0 mi SSW 6.9 mph - N/A   Clear
10:53 PM 19.0 °F 10.0 °F 14.0 °F 81% 30.50 in 10.0 mi SSW 6.9 mph - N/A   Clear
11:53 PM 18.0 °F 8.7 °F 12.9 °F 81% 30.49 in 10.0 mi South 6.9 mph - N/A   Clear